Regional Weather Roundup
Issued by NWS Bismarck, ND

Home | Current Version | Previous Version | Text Only | Print | Product List | Glossary On
Versions: 1 2 3 4 5 6 7 8 9 10 11 12 13 14 15 16 17 18 19 20 21 22 23 24 25 26 27 28 29 30 31 32 33 34 35 36 37 38 39 40 41 42 43 44 45 46 47 48 49 50
000
ASUS43 KBIS 260620
RWRBIS

NWR BROADCAST TEXT
NATIONAL WEATHER SERVICE BISMARCK ND
100 AM CDT SUN OCT 26 2014

NOTE: "FAIR" INDICATES FEW OR NO CLOUDS BELOW 12,000 FEET WITH NO
SIGNIFICANT WEATHER AND/OR OBSTRUCTIONS TO VISIBILITY.


CITY           SKY/WX    TMP DP  RH WIND       PRES   REMARKS
WILLISTON      MOCLDY    54  30  40 SE14      29.72F
MINOT          MOCLDY    38  30  73 SE5       29.85F
MINOT AFB      MOCLDY    37  31  80 SE8       29.84F
BISMARCK       CLEAR     47  32  56 SE15      29.87F
DICKINSON      PTCLDY    49  29  46 SE17      29.74F
GARRISON         N/A     47  31  53 SE10      29.85F
HETTINGER ARPT PTCLDY    49  29  46 SE15G22   29.78F
JAMESTOWN      CLEAR     39  29  67 SE7       29.95F
BEACH            N/A     50  30  46 SE22G29   29.68F
CARRINGTON     FAIR      39  28  65 SE9       29.94F
CROSBY         FAIR      48  30  49 SE14      29.75F
HARVEY         FAIR      34  28  80 SE8       29.91F
HAZEN          FAIR      48  30  49 SE13      29.84F
LINTON         FAIR      45  32  61 SE13G18   29.89F
MANDAN         FAIR      46  32  57 S12       29.87F HAZE
OAKES            N/A     36  30  80 SE10      29.97F
RUGBY          FAIR      45  28  53 SE9       29.91F
STANLEY          N/A     45  32  61 SE14G20   29.79F
TIOGA          FAIR      46  30  53 SE14G21   29.80F
$$

CITY           SKY/WX    TMP DP  RH WIND       PRES   REMARKS
GRAND FORKS    CLEAR     32  25  75 SW5       29.98S
GRAND FORKS AF CLEAR     33  25  72 SW3       29.98S
DEVILS LAKE    PTCLDY    39  27  60 SE7       29.92F
FARGO          CLEAR     38  24  57 SE5       29.99F
CANDO          FAIR      34  30  86 SE9       29.94F
CAVALIER       FAIR      39  27  60 CALM      29.96S
GRAFTON        FAIR      32  23  69 SW5       29.97S
GWINNER        CLEAR     41  32  70 S6        29.99F
LANGDON        FAIR      28  19  69 SE6       29.95F
ROLLA          FAIR      32  23  69 S5        29.94F
WALHALLA       FAIR      37  25  60 CALM      29.96S
$$

CITY           SKY/WX    TMP DP  RH WIND       PRES   REMARKS
ABERDEEN       CLEAR     36  29  75 SE7       29.97F
MOBRIDGE       CLEAR     52  34  50 SE16      29.86F
BUFFALO          N/A     52  31  44 SE15G23   29.67F
RAPID CITY     CLOUDY    47  37  68 SE9       29.81F
GLASGOW        MOCLDY    49  32  52 E15       29.58F
SIDNEY         CLOUDY    46  32  57 CALM      29.68F
WOLF POINT     CLOUDY    48  33  56 E12       29.62F
GLENDIVE       CLOUDY    52  34  50 SE8       29.66F
MILES CITY     CLOUDY    57  37  47 SE14      29.61F
BAKER          CLOUDY    53  32  44 SE22G30   29.69F
$$

CITY           SKY/WX    TMP DP  RH WIND       PRES   REMARKS
BILLINGS       MOCLDY    55  35  47 SW17      29.65F
GREAT FALLS    PTCLDY    49  39  68 SW10      29.63R
REGINA         PTCLDY    46  30  53 SE23G29   29.71F
ESTEVAN        PTCLDY    41  32  70 E12       29.76F
$$




USA.gov is the U.S. government's official web portal to all federal, state and local government web resources and services.